Weather History for KTRK - March, 2014

Change the Weather History Date:

Saturday, March 29, 2014

  Actual Average Record
Temperature  
Mean Temperature 36 °F -  
Max Temperature 41 °F 49 °F 71 °F (2015)
Min Temperature 30 °F 22 °F 6 °F (1975)
Degree Days  
Heating Degree Days 30    
Moisture  
Dew Point 32 °F    
Average Humidity 89    
Maximum Humidity 100    
Minimum Humidity 65    
Precipitation  
Precipitation 0.28 in - - ()
Sea Level Pressure  
Sea Level Pressure 30.00 in    
Wind  
Wind Speed 13 mph (SW)    
Max Wind Speed 24 mph    
Max Gust Speed 44 mph    
Visibility 6 miles    
Events Rain , Snow    
Averages and records for this station are not official NWS values.
T = Trace of Precipitation, MM = Missing Value Source: NWS Daily Summary

Daily Weather History Graph

Daily Weather History Graph

Search for Another Location

Airport or City:

Trip Planner

Search our weather history database for the weather conditions in past years. The results will help you decide how hot, cold, wet, or windy it might be!

Date:

Astronomy

Mar. 29, 2014 Rise Set
Actual Time 6:49 AM PDT 7:21 PM PDT
Civil Twilight 6:22 AM PDT 7:48 PM PDT
Nautical Twilight 5:50 AM PDT 8:20 PM PDT
Astronomical Twilight 5:18 AM PDT 8:52 PM PDT
Moon 6:00 AM PDT (3/29) 6:32 PM PDT (3/29)
Length of Visible Light 13h 25m
Length of Day
12h 32m
Waning Crescent, 1% of the Moon is Illuminated
Mar 29
Waning Crescent
Mar 30
New
Apr 7
First Quarter
Apr 15
Full
Apr 22
Last Quarter

Hourly Weather History & Observations

Time (PDT) Temp. Windchill Dew Point Humidity Pressure Visibility Wind Dir Wind Speed Gust Speed Precip Events Conditions
12:15 AM 41.0 °F 33.9 °F 30.2 °F 65% 30.08 in 10.0 mi SW 12.7 mph 29.9 mph N/A   Scattered Clouds
12:35 AM 41.0 °F 33.5 °F 30.2 °F 65% 30.07 in 10.0 mi SW 13.8 mph 26.5 mph N/A   Scattered Clouds
12:55 AM 39.2 °F 29.0 °F 30.2 °F 70% 30.07 in 10.0 mi SSW 21.9 mph 33.4 mph N/A   Clear
1:15 AM 39.2 °F 30.2 °F 30.2 °F 70% 30.06 in 10.0 mi SW 17.3 mph 28.8 mph N/A   Clear
1:35 AM 39.2 °F 29.0 °F 30.2 °F 70% 30.06 in 10.0 mi SW 21.9 mph 40.3 mph N/A   Clear
1:55 AM 39.2 °F 28.5 °F 32.0 °F 75% 30.06 in 10.0 mi SW 24.2 mph 35.7 mph N/A   Scattered Clouds
2:15 AM 39.2 °F 29.6 °F 32.0 °F 75% 30.05 in 10.0 mi SW 19.6 mph 43.7 mph N/A   Drizzle
2:35 AM 37.4 °F 27.2 °F 32.0 °F 81% 30.05 in 10.0 mi SW 19.6 mph 28.8 mph N/A   Drizzle
2:55 AM 37.4 °F 26.9 °F 33.8 °F 87% 30.05 in 7.0 mi SSW 20.7 mph 32.2 mph N/A Rain Rain
3:15 AM 37.4 °F 28.5 °F 33.8 °F 87% 30.05 in 7.0 mi SSW 15.0 mph 33.4 mph N/A Rain Rain
3:35 AM 37.4 °F 27.5 °F 33.8 °F 87% 30.03 in 10.0 mi SSW 18.4 mph 32.2 mph N/A Rain Light Rain
3:55 AM 37.4 °F 27.2 °F 33.8 °F 87% 30.04 in 10.0 mi SW 19.6 mph 26.5 mph 0.01 in Rain Rain
4:15 AM 37.4 °F 26.1 °F 33.8 °F 87% 30.04 in 10.0 mi SSW 24.2 mph 31.1 mph N/A Rain Light Rain
4:35 AM 37.4 °F 26.1 °F 33.8 °F 87% 30.04 in 10.0 mi SSW 24.2 mph 28.8 mph N/A Rain Light Rain
4:55 AM 39.2 °F 29.8 °F 33.8 °F 81% 30.04 in 10.0 mi SSW 18.4 mph 29.9 mph N/A Rain Light Rain
5:15 AM 37.4 °F 27.2 °F 33.8 °F 87% 30.04 in 10.0 mi SSW 19.6 mph 24.2 mph 0.01 in Rain Light Rain
5:35 AM 37.4 °F 27.8 °F 33.8 °F 87% 30.03 in 10.0 mi SSW 17.3 mph 28.8 mph 0.01 in Rain Rain
5:55 AM 37.4 °F 29.8 °F 33.8 °F 87% 30.04 in 10.0 mi SSW 11.5 mph 21.9 mph 0.02 in Rain Light Rain
6:15 AM 37.4 °F 27.2 °F 33.8 °F 87% 30.04 in 10.0 mi SSW 19.6 mph 29.9 mph N/A Rain Light Rain
6:35 AM 39.2 °F 28.5 °F 32.0 °F 75% 30.04 in 10.0 mi SSW 24.2 mph 35.7 mph N/A Rain Light Rain
6:50 AM 39.2 °F 28.5 °F 33.8 °F 81% 30.03 in 6.0 mi SSW 24.2 mph 31.1 mph N/A Rain Rain
7:45 AM 39.2 °F 28.7 °F 33.8 °F 81% 30.04 in 10.0 mi SSW 23.0 mph 36.8 mph N/A   Overcast
8:55 AM 37.4 °F 29.3 °F 35.6 °F 93% 30.04 in 10.0 mi SSW 12.7 mph 18.4 mph N/A Rain Light Rain
9:55 AM 39.2 °F 31.2 °F 35.6 °F 87% 30.05 in 8.0 mi SSW 13.8 mph 19.6 mph N/A Rain Light Rain
10:50 AM 39.2 °F 32.0 °F 35.6 °F 87% 30.06 in 6.0 mi SSW 11.5 mph 16.1 mph N/A Rain Light Rain
11:50 AM 39.2 °F 32.5 °F 35.6 °F 87% 30.04 in 6.0 mi SSW 10.4 mph 19.6 mph N/A Rain Light Rain
12:55 PM 39.2 °F 31.6 °F 35.6 °F 87% 30.04 in 6.0 mi SSW 12.7 mph 20.7 mph N/A Rain Rain
1:55 PM 35.6 °F 30.7 °F 33.8 °F 93% 30.03 in 3.0 mi West 5.8 mph - N/A Rain Rain
2:45 PM 35.6 °F 31.7 °F 35.6 °F 100% 30.01 in 3.0 mi SSW 4.6 mph - N/A Rain Light Rain
3:50 PM 35.6 °F - 33.8 °F 93% 29.98 in 1.0 mi Calm Calm - N/A Rain Rain
4:50 PM 32.0 °F - 32.0 °F 100% 29.97 in 0.5 mi Calm Calm - N/A Snow Snow
5:50 PM 32.0 °F - 32.0 °F 100% 29.95 in 0.5 mi Calm Calm - N/A Snow Snow
6:15 PM 32.0 °F - 32.0 °F 100% 29.95 in 0.5 mi Calm Calm - 0.03 in Snow Snow
6:35 PM 32.0 °F - 32.0 °F 100% 29.95 in 0.8 mi Calm Calm - 0.06 in Snow Light Snow
6:55 PM 32.0 °F - 32.0 °F 100% 29.95 in 0.5 mi Calm Calm - 0.09 in Snow Snow
7:15 PM 32.0 °F - 32.0 °F 100% 29.95 in 0.5 mi Calm Calm - 0.02 in Snow Snow
7:35 PM 32.0 °F - 32.0 °F 100% 29.94 in 1.2 mi Calm Calm - 0.05 in Snow Snow
7:55 PM 32.0 °F - 32.0 °F 100% 29.94 in 1.2 mi Calm Calm - 0.08 in Snow Snow
8:15 PM 32.0 °F 28.7 °F 30.2 °F 93% 29.94 in 1.2 mi West 3.5 mph - 0.01 in Snow Snow
8:35 PM 32.0 °F - 30.2 °F 93% 29.94 in 1.0 mi Calm Calm - 0.03 in Snow Snow
8:55 PM 32.0 °F - 30.2 °F 93% 29.94 in 1.8 mi Calm Calm - 0.04 in Snow Light Snow
9:15 PM 32.0 °F - 30.2 °F 93% 29.92 in 2.0 mi Calm Calm - 0.01 in Snow Light Snow
9:35 PM 30.2 °F - 30.2 °F 100% 29.92 in 3.0 mi Calm Calm - 0.01 in Snow Light Snow
9:55 PM 30.2 °F - 30.2 °F 100% 29.92 in 3.0 mi Calm Calm - 0.01 in Snow Light Snow
10:15 PM 30.2 °F - 30.2 °F 100% 29.91 in 3.0 mi Calm Calm - N/A Snow Light Snow
10:35 PM 30.2 °F - 30.2 °F 100% 29.90 in 2.0 mi Calm Calm - 0.01 in Snow Light Snow
10:55 PM 30.2 °F - 30.2 °F 100% 29.90 in 2.5 mi Calm Calm - 0.02 in Snow Light Snow
11:15 PM 30.2 °F - 30.2 °F 100% 29.89 in 3.0 mi Calm Calm - N/A Snow Light Snow
11:35 PM 30.2 °F - 30.2 °F 100% 29.89 in 3.0 mi Calm Calm - N/A Snow Light Snow
11:55 PM 30.2 °F - 30.2 °F 100% 29.91 in 2.5 mi Calm Calm - 0.01 in Snow Light Snow